Home > Weather > Cairo > Past weeks

Flag for Egypt Past Weather in Cairo, Egypt — Yesterday and Last 2 Weeks

Now
84 °F

Clear.


Feels Like: 82 °F
Forecast: 74 / 108 °F
Wind: 5 mph from West

Location: Cairo Airport

Current Time: Jun 1, 2016 at 1:52:17 AM

Latest Report: Jun 1, 2016 at 1:00 AM


Visibility: 10 mi

Pressure: 29.95 "Hg

Humidity: 27%

Dew Point: 46 °F

Location of CairoLocation

Past Weather in Cairo — Graph

°F

Cairo Temperature Yesterday

Maximum temperature yesterday: 97 °F (at 1:30 PM)
Minimum temperature yesterday: 70 °F (at 5:00 AM)
Average temperature yesterday: 85 °F

High & Low Weather Summary for the Past Weeks

 TemperatureHumidityPressure
High100 °F (May 22, 10:00 AM)83% (May 30, 5:00 AM)30.07 "Hg (May 30, 5:00 AM)
Low66 °F (May 19, 3:30 AM)13% (May 22, 10:00 AM)29.74 "Hg (May 26, 4:30 AM)
Average79 °F46%29.95 "Hg
* Reported May 17 12:00 AM — Jun 1 12:30 AM, Cairo, Weather by CustomWeather, © 2016

Note: Actual official high and low records may vary slightly from our data, if they occured in-between our weather recording intervals... More about our weather records

Advertising

Cairo Weather History for the Previous 24 Hours

Scroll right to see more
 ConditionsComfort  
Time TempWeatherWind HumidityBarometerVisibility
12:30 AM
Wed, Jun 1
84 °FClear.8 mph25%29.92 "Hg10 mi
12:00 AM84 °FClear.8 mph25%29.92 "Hg10 mi
11:30 PM
Tue, May 31
84 °FClear.13 mph25%29.95 "Hg10 mi
11:00 PM84 °FClear.13 mph31%29.95 "Hg10 mi
10:30 PM86 °FClear.10 mph33%29.98 "Hg10 mi
10:00 PM86 °FClear.10 mph33%29.98 "Hg10 mi
9:30 PM88 °FClear.10 mph31%29.98 "Hg10 mi
9:00 PM88 °FClear.10 mph31%29.98 "Hg10 mi
8:30 PM91 °FClear.10 mph26%29.98 "Hg10 mi
8:00 PM91 °FClear.10 mph26%29.98 "Hg10 mi
7:30 PM91 °FClear.12 mph26%29.98 "Hg10 mi
7:00 PM93 °FClear.12 mph21%29.98 "Hg10 mi
6:30 PM93 °FSunny.10 mph23%29.98 "Hg10 mi
6:00 PM95 °FSunny.9 mph20%29.95 "Hg10 mi
5:30 PM95 °FSunny.12 mph18%29.95 "Hg10 mi
5:00 PM97 °FSunny.10 mph17%29.95 "Hg10 mi
4:30 PM97 °FSunny.10 mph16%29.95 "Hg10 mi
4:00 PM97 °FSunny.13 mph16%29.95 "Hg10 mi
3:30 PM97 °FSunny.8 mph16%29.95 "Hg10 mi
3:00 PM97 °FSunny.12 mph14%29.95 "Hg10 mi
2:30 PM97 °FSunny.10 mph14%29.95 "Hg10 mi
2:00 PM95 °FSunny.9 mph15%29.95 "Hg10 mi
1:30 PM97 °FSunny.14 mph14%29.98 "Hg10 mi
1:00 PM93 °FSunny.12 mph13%29.98 "Hg10 mi
12:30 PM93 °FSunny.13 mph16%29.98 "Hg10 mi
12:00 PM93 °FSunny.13 mph15%30.01 "Hg10 mi
11:30 AM93 °FSunny.12 mph16%30.01 "Hg10 mi
11:00 AM90 °FSunny.10 mph20%30.01 "Hg10 mi
10:30 AM88 °FSunny.14 mph22%30.01 "Hg10 mi
9:30 AM86 °FSunny.14 mph24%30.01 "Hg10 mi
9:00 AM84 °FSunny.16 mph25%30.01 "Hg10 mi
8:30 AM82 °FSunny.17 mph28%30.01 "Hg10 mi
8:00 AM79 °FSunny.17 mph37%30.01 "Hg10 mi
7:30 AM79 °FSunny.17 mph37%30.01 "Hg10 mi
7:00 AM75 °FSunny.15 mph50%30.01 "Hg10 mi
6:30 AM73 °FSunny.12 mph57%30.01 "Hg10 mi
6:00 AM72 °FSunny.13 mph29%29.98 "Hg10 mi
5:30 AM72 °FSunny.12 mph57%29.98 "Hg10 mi
5:00 AM70 °FSunny.8 mph60%29.98 "Hg10 mi
4:30 AM72 °FClear.7 mph61%29.98 "Hg10 mi
4:00 AM72 °FClear.7 mph61%29.98 "Hg10 mi
3:30 AM72 °FClear.7 mph57%29.98 "Hg10 mi
3:00 AM73 °FClear.9 mph50%29.98 "Hg10 mi
2:30 AM73 °FClear.10 mph50%29.98 "Hg10 mi
2:00 AM73 °FClear.10 mph50%29.98 "Hg10 mi
1:30 AM73 °FClear.10 mph47%29.98 "Hg10 mi
1:00 AM75 °FClear.8 mph44%29.98 "Hg10 mi
Weather by CustomWeather, © 2016

See weather overviewHow to use our weather pages